Location: Oshawa
(43.9000°N, 78.8670°W)
Time: 01:13:43
(UTC-05:00)

Cosmos 1408 Rocket - Visible Passes

Search period start: 22 January 2018 00:00
Search period end: 01 February 2018 00:00
Orbit: 600 x 632 km, 82.6° (Epoch: 21 January)

Date Brightness Start Highest point End Pass type
(mag) Time Alt. Az. Time Alt. Az. Time Alt. Az.
22 Jan 5.1 04:57:47 24° NNE 04:59:39 34° ENE 05:03:41 10° SE visible
22 Jan 4.7 06:34:57 15° NW 06:37:14 22° W 06:40:35 10° SW visible
22 Jan 5.1 19:05:36 10° SW 19:09:32 35° WNW 19:13:31 10° N visible
23 Jan 3.9 05:15:17 49° NNE 05:16:11 62° E 05:20:32 10° SSE visible
23 Jan 5.3 06:52:27 12° WNW 06:53:25 12° W 06:55:13 10° WSW visible
23 Jan 4.1 17:44:20 10° SSE 17:48:15 35° E 17:52:11 10° NNE visible
23 Jan 6.1 19:22:55 10° WSW 19:26:09 20° WNW 19:29:25 10° NNW visible
24 Jan 6.8 03:55:42 10° E 03:55:42 10° E 03:55:46 10° E visible
24 Jan 3.4 05:32:52 70° SW 05:32:52 70° SW 05:37:01 10° S visible
24 Jan 3.5 18:00:20 10° S 18:04:35 66° E 18:08:52 10° NNE visible
24 Jan 6.6 19:41:12 10° W 19:42:52 12° WNW 19:44:34 10° NW visible
25 Jan 6.4 04:13:21 14° ESE 04:13:21 14° ESE 04:14:15 10° ESE visible
25 Jan 4.6 05:50:32 29° SW 05:50:32 29° SW 05:53:05 10° SSW visible
25 Jan 3.9 18:16:44 10° SSW 18:21:00 67° W 18:25:19 10° N visible
26 Jan 6.3 04:31:04 13° SE 04:31:04 13° SE 04:31:39 10° SE visible
26 Jan 5.7 06:08:15 12° SW 06:08:15 12° SW 06:08:41 10° SW visible
26 Jan 5.1 18:33:32 10° SW 18:37:31 36° WNW 18:41:32 10° N visible
27 Jan 6.1 18:50:50 10° WSW 18:54:08 21° WNW 18:57:28 10° NNW visible
28 Jan 6.6 19:09:00 10° W 19:10:50 12° WNW 19:12:42 10° NW visible
29 Jan 3.9 17:44:43 10° SSW 17:48:59 70° W 17:53:19 10° N visible
30 Jan 5.1 18:01:29 10° SW 18:05:30 38° WNW 18:09:33 10° N visible
31 Jan 6.1 18:18:44 10° WSW 18:22:06 22° WNW 18:25:30 10° NNW visible
